Showing default

SATELIOT_3, 60552

Orbit data source: Space-Track

SATELIOT_3, 60552 is a payload satellite owned by Sateliot (ES) in SSO that was launched on Fri, 16 Aug 2024 UTC via an FALCON 9 launch vehicle from the Air Force Western Test Range (AFWTR). Payload-class satellites include a variety of spacecraft equipped with specific instruments for various scientific and technological missions. These include communications satellites like Starlink; space stations such as the ISS; scientific satellites like the Hubble; Earth observation satellites from companies like Planet Labs, Umbra, and HawkEye 360; GPS; miniature CubeSats for education and research; and military/defense satellites.

Loading next visibility...
Identifier
60552, 2024-149CN
Orbit
SSO
Country
Flag of ESES / SPN
Related business
Manufacturer
Endurosat
Mission
Operational Commercial Communications
Bus & Motor
CUBESAT 6U, Unknown motor
Mass
7.407 kg wet, 7.407 kg dry
Launch date (UTC)
2024-08-16 (2 years ago)
Launch vehicle
FALCON 9
Launch site
Air Force Western Test Range (AFWTR)
Object type
Payload
Rocket body
Debris
Shape & HBR
Box + 2 Pan, 0.2 m
Radar Cross Section
0.092 m², Medium (>0.1 m² and < 1m²)

Expand to show TLE details & history
Last TLE update: 6 hours ago

TLE from 6 hours ago
0 SATELIOT_3
1 60552U 24149CN  26133.46764176  .00001002  00000-0  89984-4 0  9999
2 60552  97.6819 210.7059 0004880 188.0174 172.0971 14.97903855 94880
Epoch: 2026-05-13T11:13Z
TLE epoch observation values (Epoch: 2026-05-13T11:13:24.248Z)
Latitude
-0.00001°
Longitude
171.12763°
Altitude
579.787 km
Speed
7.569 km/s
True Right ascension
14h 02m 49s
True Declination
0° 00' 00"
Sunlit
Object was in full shadow at epoch
Visualization orbit readout
Latitude
Unknown
Longitude
Unknown
Altitude
Unknown
Speed
Unknown
Apparent Right ascension
Unknown
Apparent Declination
Unknown
Sunlit
N/A
Visualization observer readout
Local Sidereal Time
01:49:28
Azimuth
Unknown
Elevation
Unknown
Doppler factor
Unknown
Orbital elements
Apogee altitude
573.772 km
Perigee altitude
566.99 km
Semi-major axis
6,948.518 km
Eccentricity
0.00049
Inclination
97.6819°
RAAN
210.7059°
Arg. of periapsis
188.0174°
True anomaly
172.10478°
Mean anomaly
172.0971°
Eccentric anomaly
172.10094°
Mean motion
3.74718 °/min
Orbital period
96.07 mins
BSTAR
0.000089984
Loading maneuver chart data...
Computing Atmospheric mass density...
Loading historical data...
Loading historical data...
Loading historical data...
Loading historical data...
Loading historical data...
Loading historical data...
Loading historical data...

Documentation

Showing up to 5 results
|